This demonstration page uses our WeatherBlox Daily Observations layout. Learn more.

38.88101, -77.10428

Hourly Observations for February 8, 2018

Temp ( °F °C ) Dew Point ( °F °C ) Humidity (%) Winds ( mph kmh ) Pressure ( in mb ) Visibility ( mi km ) Precip ( " mm )
12:52 am 00:52 Partly Cloudy 34 1.1 24 -4.4 67 67 NNW 23 37 30.26 1025 10 16.0934 0 0
1:52 am 01:52 Partly Cloudy 32 0 21 -6.1 64 64 NNW 23 37 30.29 1026 10 16.0934 0 0
2:52 am 02:52 Mostly Clear 31 -0.6 20 -6.7 64 64 NNW 20 31 30.31 1026 10 16.0934 0 0
3:52 am 03:52 Mostly Clear 30 -1.1 17 -8.3 58 58 NNW 20 31 30.33 1027 10 16.0934 0 0
4:52 am 04:52 Mostly Cloudy 28 -2.2 17 -8.3 63 63 NNW 20 31 30.36 1028 10 16.0934 0 0
5:52 am 05:52 Mostly Cloudy 28 -2.2 16 -8.9 60 60 NNW 15 24 30.39 1029 10 16.0934 0 0
6:52 am 06:52 Mostly Cloudy 27 -2.8 14 -10 58 58 WNW 21 33 30.43 1031 10 16.0934 0 0
7:52 am 07:52 Partly Cloudy 26 -3.3 12 -11.1 55 55 undefined N/A 30.45 1031 10 16.0934 0 0
8:52 am 08:52 Partly Cloudy 28 -2.2 13 -10.6 53 53 NNW 10 17 30.48 1032 10 16.0934 0 0
9:52 am 09:52 Partly Cloudy 31 -0.6 13 -10.6 47 47 NW 15 24 30.49 1033 10 16.0934 0 0
10:52 am 10:52 Partly Cloudy 32 0 14 -10 47 47 NW 15 24 30.49 1033 10 16.0934 0 0
11:52 am 11:52 Mostly Sunny 34 1.1 14 -10 44 44 N 12 19 30.48 1032 10 16.0934 0 0
12:52 pm 12:52 Mostly Sunny 35 1.7 13 -10.6 40 40 N 13 20 30.44 1031 10 16.0934 0 0
1:52 pm 13:52 Mostly Sunny 36 2.2 13 -10.6 39 39 WNW 12 19 30.42 1030 10 16.0934 0 0
2:52 pm 14:52 Partly Cloudy 35 1.7 15 -9.4 44 44 VRB 3 6 30.41 1030 10 16.0934 0 0
3:52 pm 15:52 Mostly Sunny 37 2.8 14 -10 39 39 NNE 3 6 30.41 1030 10 16.0934 0 0
4:52 pm 16:52 Mostly Sunny 36 2.2 16 -8.9 44 44 NNE 7 11 30.41 1030 10 16.0934 0 0
5:52 pm 17:52 Mostly Clear 35 1.7 20 -6.7 54 54 Calm 30.43 1030 10 16.0934 0 0
6:52 pm 18:52 Clear 35 1.7 17 -8.3 48 48 Calm 30.47 1032 10 16.0934 0 0
7:52 pm 19:52 Clear 33 0.6 20 -6.7 58 58 ENE 7 11 30.46 1032 10 16.0934 0 0
8:52 pm 20:52 Mostly Clear 32 0 19 -7.2 59 59 ENE 3 6 30.47 1032 10 16.0934 0 0
9:52 pm 21:52 Mostly Clear 32 0 18 -7.8 56 56 Calm 30.5 1033 10 16.0934 0 0
10:52 pm 22:52 Partly Cloudy 30 -1.1 21 -6.1 69 69 Calm 30.51 1033 10 16.0934 0 0
11:52 pm 23:52 Partly Cloudy 30 -1.1 23 -5 75 75 SE 3 6 30.51 1033 10 16.0934 0 0

Powered by AerisWeather